Change the Weather History Date:

Tuesday, February 25, 2014

  Actual Average Record
Temperature  
Mean Temperature 6 °F -  
Max Temperature 12 °F 36 °F 63 °F (1981)
Min Temperature -1 °F 17 °F -9 °F (1967)
Degree Days  
Heating Degree Days 60    
Moisture  
Dew Point -1 °F    
Average Humidity 71    
Maximum Humidity 87    
Minimum Humidity 59    
Precipitation  
Precipitation 0.00 in - - ()
Sea Level Pressure  
Sea Level Pressure 30.38 in    
Wind  
Wind Speed 10 mph (NW)    
Max Wind Speed 22 mph    
Max Gust Speed 28 mph    
Visibility 10 miles    
Events Snow    
Averages and records for this station are not official NWS values.
T = Trace of Precipitation, MM = Missing Value Source: NWS Daily Summary

Daily Weather History Graph

Daily Weather History Graph

Search for Another Location

Airport or City:

Trip Planner

Search our weather history database for the weather conditions in past years. The results will help you decide how hot, cold, wet, or windy it might be!

Date:

Astronomy

Feb. 25, 2014 Rise Set
Actual Time 6:57 AM CST 6:02 PM CST
Civil Twilight 6:29 AM CST 6:30 PM CST
Nautical Twilight 5:57 AM CST 7:02 PM CST
Astronomical Twilight 5:25 AM CST 7:34 PM CST
Moon 3:55 AM CST (2/25) 2:06 PM CST (2/25)
Length of Visible Light 12h 00m
Length of Day
11h 04m
Waning Crescent, 18% of the Moon is Illuminated
Feb 25
Waning Crescent
Mar 1
New
Mar 8
First Quarter
Mar 16
Full
Mar 23
Last Quarter

Hourly Weather History & Observations

Time (CST) Temp. Windchill Dew Point Humidity Pressure Visibility Wind Dir Wind Speed Gust Speed Precip Events Conditions
12:15 AM 12.7 °F 3.6 °F 9.1 °F 86% 30.34 in 5.0 mi North 5.8 mph - N/A Snow Light Snow
12:35 AM 12.7 °F 3.6 °F 9.0 °F 85% 30.33 in 10.0 mi North 5.8 mph - N/A Snow Light Snow
12:55 AM 12.2 °F 0.7 °F 8.4 °F 85% 30.33 in 10.0 mi North 8.1 mph - N/A   Overcast
1:15 AM 10.4 °F -1.5 °F 6.8 °F 85% 30.33 in 10.0 mi North 8.1 mph - N/A   Mostly Cloudy
1:35 AM 8.6 °F -1.3 °F 5.0 °F 85% 30.34 in 7.0 mi NNW 5.8 mph - N/A Snow Light Snow
1:55 AM 7.3 °F -4.1 °F 4.1 °F 87% 30.34 in 10.0 mi North 6.9 mph - N/A   Mostly Cloudy
2:13 AM 8.6 °F -3.7 °F 3.2 °F 79% 30.35 in 10.0 mi NNW 8.1 mph - N/A   Scattered Clouds
2:15 AM 8.4 °F -3.9 °F 4.3 °F 83% 30.35 in 10.0 mi NNW 8.1 mph - N/A   Scattered Clouds
3:55 AM 6.3 °F -8.4 °F 1.4 °F 80% 30.36 in 10.0 mi NNW 10.4 mph - N/A   Scattered Clouds
4:13 AM 5.0 °F -10.0 °F -0.4 °F 78% 30.36 in 10.0 mi NNW 10.4 mph - N/A   Clear
4:15 AM 5.4 °F -9.6 °F -0.0 °F 78% 30.36 in 10.0 mi NNW 10.4 mph - N/A   Clear
4:35 AM 5.4 °F -10.4 °F 0.5 °F 80% 30.36 in 10.0 mi NNW 11.5 mph - N/A   Clear
4:55 AM 4.5 °F -12.3 °F -0.2 °F 81% 30.36 in 10.0 mi NNW 12.7 mph - N/A   Clear
5:15 AM 3.7 °F -13.2 °F -1.5 °F 79% 30.37 in 10.0 mi NNW 12.7 mph - N/A   Clear
5:35 AM 3.0 °F -14.1 °F -2.2 °F 79% 30.37 in 10.0 mi North 12.7 mph - N/A   Clear
5:55 AM 2.3 °F -14.2 °F -3.1 °F 78% 30.37 in 10.0 mi North 11.5 mph 16.1 mph N/A   Clear
6:35 AM -0.8 °F -13.9 °F -5.4 °F 81% 30.38 in 10.0 mi NW 6.9 mph - N/A   Clear
6:55 AM -0.2 °F -15.5 °F -4.9 °F 81% 30.38 in 10.0 mi NW 9.2 mph - N/A   Clear
7:20 AM 0.7 °F -14.4 °F -4.7 °F 78% 30.38 in 10.0 mi NW 9.2 mph - N/A   Clear
7:35 AM 0.1 °F -14.0 °F -5.1 °F 79% 30.38 in 10.0 mi NW 8.1 mph - N/A   Clear
7:55 AM -1.3 °F -14.5 °F -6.3 °F 79% 30.39 in 10.0 mi WNW 6.9 mph - N/A   Clear
8:15 AM 1.4 °F -13.5 °F -3.8 °F 79% 30.38 in 10.0 mi NNW 9.2 mph - N/A   Clear
8:35 AM 2.3 °F -8.8 °F -3.1 °F 78% 30.38 in 10.0 mi NW 5.8 mph - N/A   Clear
8:55 AM 3.0 °F -9.3 °F -2.7 °F 77% 30.40 in 10.0 mi WNW 6.9 mph - N/A   Clear
9:15 AM 3.0 °F -9.3 °F -2.9 °F 76% 30.39 in 10.0 mi West 6.9 mph - N/A   Clear
9:35 AM 3.9 °F -11.3 °F -3.1 °F 73% 30.40 in 10.0 mi NNW 10.4 mph - N/A   Clear
9:55 AM 4.1 °F -12.0 °F -3.5 °F 71% 30.40 in 10.0 mi NNW 11.5 mph - N/A   Clear
10:15 AM 4.5 °F -10.7 °F -4.0 °F 68% 30.40 in 10.0 mi NW 10.4 mph - N/A   Clear
10:35 AM 5.5 °F -9.3 °F -3.6 °F 66% 30.41 in 10.0 mi NNW 10.4 mph - N/A   Clear
10:50 AM 5.9 °F -4.5 °F -2.4 °F 69% 30.41 in 10.0 mi WNW 5.8 mph - N/A   Clear
11:20 AM 6.8 °F -8.6 °F -3.5 °F 63% 30.40 in 10.0 mi NW 11.5 mph - N/A   Clear
11:35 AM 7.2 °F -7.3 °F -4.2 °F 60% 30.40 in 10.0 mi NW 10.4 mph - N/A   Clear
12:00 PM 7.7 °F -6.6 °F -3.8 °F 59% 30.41 in 10.0 mi NW 10.4 mph - N/A   Clear
12:15 PM 7.7 °F -6.6 °F -4.0 °F 59% 30.41 in 10.0 mi NW 10.4 mph - N/A   Clear
12:35 PM 7.7 °F -4.8 °F -2.2 °F 64% 30.40 in 10.0 mi WNW 8.1 mph - N/A   Clear
12:55 PM 9.1 °F -4.0 °F -2.0 °F 61% 30.39 in 10.0 mi NW 9.2 mph - N/A   Clear
1:15 PM 9.0 °F -6.6 °F -1.1 °F 64% 30.39 in 10.0 mi West 12.7 mph 16.1 mph N/A   Clear
1:35 PM 9.5 °F -4.4 °F -1.3 °F 62% 30.38 in 10.0 mi West 10.4 mph - N/A   Clear
1:55 PM 10.2 °F -5.0 °F 0.3 °F 64% 30.37 in 10.0 mi WNW 12.7 mph - N/A   Clear
2:15 PM 10.8 °F -2.8 °F -0.2 °F 61% 30.36 in 10.0 mi WNW 10.4 mph - N/A   Clear
2:35 PM 10.4 °F -4.1 °F 0.3 °F 64% 30.36 in 10.0 mi WNW 11.5 mph - N/A   Clear
2:55 PM 10.4 °F -7.7 °F 0.1 °F 63% 30.36 in 7.0 mi WNW 18.4 mph - N/A Snow Light Snow
3:15 PM 11.3 °F -6.0 °F 0.1 °F 61% 30.36 in 0.5 mi WNW 17.3 mph - N/A Snow Snow
3:35 PM 12.0 °F -5.6 °F 1.2 °F 62% 30.35 in 2.0 mi WNW 18.4 mph 24.2 mph N/A Snow Light Snow
3:55 PM 12.6 °F -4.9 °F 1.2 °F 61% 30.34 in 7.0 mi WNW 18.4 mph 23.0 mph N/A   Overcast
4:15 PM 11.8 °F -4.8 °F 0.5 °F 60% 30.34 in 10.0 mi WNW 16.1 mph 23.0 mph N/A   Overcast
4:35 PM 12.4 °F -4.1 °F 1.4 °F 62% 30.34 in 10.0 mi WNW 16.1 mph 21.9 mph N/A   Mostly Cloudy
4:55 PM 11.8 °F -4.2 °F 1.0 °F 62% 30.34 in 10.0 mi WNW 15.0 mph - N/A   Scattered Clouds
5:15 PM 11.7 °F -3.8 °F 0.3 °F 60% 30.34 in 10.0 mi WNW 13.8 mph - N/A   Clear
5:35 PM 11.3 °F -3.6 °F 1.2 °F 64% 30.33 in 10.0 mi NW 12.7 mph - N/A   Clear
5:55 PM 10.8 °F -3.6 °F 1.2 °F 65% 30.33 in 10.0 mi NW 11.5 mph - N/A   Clear
6:15 PM 10.0 °F -4.5 °F 1.2 °F 68% 30.35 in 10.0 mi NW 11.5 mph - N/A   Clear
6:35 PM 10.2 °F -5.0 °F 0.9 °F 66% 30.35 in 10.0 mi NW 12.7 mph 17.3 mph N/A   Clear
6:55 PM 9.5 °F -5.9 °F 0.3 °F 66% 30.36 in 10.0 mi NW 12.7 mph - N/A   Clear
7:15 PM 9.3 °F -7.4 °F 0.1 °F 66% 30.37 in 10.0 mi NNW 15.0 mph - N/A   Clear
7:35 PM 8.4 °F -9.7 °F 0.1 °F 69% 30.38 in 10.0 mi NNW 17.3 mph - N/A   Clear
7:55 PM 7.9 °F -11.0 °F -0.0 °F 70% 30.39 in 10.0 mi NNW 18.4 mph 25.3 mph N/A   Clear
8:15 PM 7.7 °F -12.6 °F -0.4 °F 70% 30.40 in 10.0 mi NNW 21.9 mph 27.6 mph N/A   Clear
8:35 PM 7.7 °F -12.2 °F -0.9 °F 68% 30.40 in 10.0 mi NNW 20.7 mph 26.5 mph N/A   Clear
8:55 PM 7.5 °F -11.9 °F -1.1 °F 68% 30.41 in 10.0 mi NNW 19.6 mph 27.6 mph N/A   Clear
9:15 PM 6.8 °F -13.4 °F -1.3 °F 69% 30.43 in 10.0 mi NNW 20.7 mph 25.3 mph N/A   Clear
9:35 PM 6.4 °F -12.8 °F -1.5 °F 70% 30.43 in 10.0 mi NNW 18.4 mph 23.0 mph N/A   Clear
9:55 PM 5.9 °F -11.8 °F -1.8 °F 70% 30.45 in 10.0 mi NNW 15.0 mph - N/A   Clear
10:15 PM 5.0 °F -12.3 °F -3.3 °F 69% 30.44 in 10.0 mi NNW 13.8 mph - N/A   Clear
10:35 PM 4.1 °F -11.1 °F -3.8 °F 70% 30.44 in 10.0 mi NNW 10.4 mph - N/A   Clear
10:55 PM 3.2 °F -12.2 °F -4.4 °F 71% 30.44 in 10.0 mi NNW 10.4 mph - N/A   Clear
11:15 PM 2.8 °F -9.5 °F -4.7 °F 71% 30.44 in 10.0 mi NW 6.9 mph - N/A   Clear
11:35 PM 1.6 °F -11.0 °F -5.1 °F 74% 30.43 in 10.0 mi NW 6.9 mph - N/A   Clear
11:55 PM 1.2 °F -12.7 °F -5.3 °F 74% 30.43 in 10.0 mi NW 8.1 mph - N/A   Clear